K5GTX Weather Reports


time (UTC)temp
C
wind
direction
speed
KPH
gust
KPH
rain 1hr
cm
rain 24hr
cm
rain mn
cm
humidity
%
barometer
mb
20260507132830 13 337 4.8 6.4 0.00 0.00 0.00 99 1027.5
20260507132326 13 354 1.6 4.8 0.00 0.00 0.00 99 1027.4
20260507131823 13 352 0.0 4.8 0.00 0.00 0.00 99 1027.4
20260507131320 13 0 0.0 4.8 0.00 0.00 0.00 99 1027.5
20260507130817 13 289 4.8 4.8 0.00 0.00 0.00 99 1027.6
20260507130314 12 246 3.2 6.4 0.00 0.00 0.00 99 1027.3
20260507125813 12 32 4.8 9.7 0.00 0.00 0.00 99 1027.2
20260507125310 12 355 1.6 6.4 0.00 0.00 0.00 99 1027.3
20260507124807 12 15 1.6 3.2 0.00 0.00 0.00 99 1026.9
20260507124303 12 294 1.6 4.8 0.00 0.00 0.00 99 1027.3
20260507123802 12 342 0.0 3.2 0.00 0.00 0.00 99 1027.2
20260507123259 11 295 3.2 3.2 0.00 0.00 0.00 99 1027.2
20260507122754 11 279 0.0 3.2 0.00 0.00 0.00 99 1027.2
20260507122250 11 270 0.0 1.6 0.00 0.00 0.00 99 1027.1
20260507121746 11 270 0.0 0.0 0.00 0.00 0.00 99 1027.1
20260507121242 10 261 0.0 0.0 0.00 0.00 0.00 99 1026.9
20260507120738 10 261 0.0 0.0 0.00 0.00 0.00 99 1027.0
20260507120235 10 261 0.0 0.0 0.00 0.00 0.00 99 1026.9
20260507115731 10 261 0.0 0.0 0.00 0.00 0.00 99 1026.6
20260507115228 10 261 0.0 0.0 0.00 0.00 0.00 99 1026.8
20260507114723 10 261 0.0 1.6 0.00 0.00 0.00 99 1026.6
20260507114221 10 286 0.0 0.0 0.00 0.00 0.00 99 1026.6
20260507113718 10 279 0.0 1.6 0.00 0.00 0.00 99 1026.3
20260507113215 11 294 0.0 3.2 0.00 0.00 0.00 99 1026.6
20260507112713 10 278 0.0 0.0 0.00 0.00 0.00 99 1026.4
20260507112209 11 257 1.6 4.8 0.00 0.00 0.00 99 1026.3
20260507111707 11 217 0.0 3.2 0.00 0.00 0.00 99 1026.2
20260507111204 11 278 0.0 4.8 0.00 0.00 0.00 99 1026.1
20260507110659 10 291 0.0 3.2 0.00 0.00 0.00 99 1026.0
20260507110156 10 340 0.0 3.2 0.00 0.00 0.00 99 1026.0
20260507105653 10 297 0.0 1.6 0.00 0.00 0.00 99 1026.0
20260507105149 10 331 0.0 0.0 0.00 0.00 0.00 99 1025.8
20260507104647 10 279 0.0 0.0 0.00 0.00 0.00 99 1025.7
20260507104143 10 345 0.0 0.0 0.00 0.00 0.00 99 1025.5
20260507103639 10 352 0.0 0.0 0.00 0.00 0.00 99 1025.5
20260507103136 10 279 0.0 0.0 0.00 0.00 0.00 99 1025.4
20260507102632 10 279 0.0 0.0 0.00 0.00 0.00 99 1025.4
20260507102128 10 90 0.0 0.0 0.00 0.00 0.00 99 1025.0
20260507101624 11 90 0.0 0.0 0.00 0.00 0.00 99 1025.4
20260507101120 11 90 0.0 0.0 0.00 0.00 0.00 99 1025.1
20260507100618 11 90 0.0 0.0 0.00 0.00 0.00 99 1025.1
20260507100116 11 90 0.0 0.0 0.00 0.00 0.00 99 1024.9
20260507095614 11 306 1.6 3.2 0.00 0.00 0.00 99 1024.8
20260507095110 11 345 0.0 1.6 0.00 0.00 0.00 99 1025.1
20260507094606 11 345 0.0 1.6 0.00 0.00 0.00 99 1024.9
20260507094103 11 7 0.0 1.6 0.00 0.00 0.00 99 1024.9
20260507093601 11 82 0.0 1.6 0.00 0.00 0.00 99 1024.8
20260507093059 11 0 0.0 3.2 0.00 0.00 0.00 99 1024.6
20260507092555 11 8 0.0 1.6 0.00 0.00 0.00 99 1024.8
20260507092052 11 74 0.0 3.2 0.00 0.00 0.00 99 1024.8
20260507091549 11 7 0.0 1.6 0.00 0.00 0.00 99 1024.9
20260507091045 11 29 1.6 3.2 0.00 0.00 0.00 99 1024.8
20260507090541 11 48 3.2 4.8 0.00 0.00 0.00 99 1024.6
20260507090038 11 15 1.6 3.2 0.00 0.00 0.00 99 1024.9
20260507085535 11 346 0.0 3.2 0.00 0.00 0.00 99 1024.7
20260507085032 11 35 0.0 3.2 0.00 0.00 0.00 99 1024.4
20260507084528 11 0 0.0 3.2 0.00 0.00 0.00 99 1024.5
20260507084026 11 60 0.0 4.8 0.00 0.00 0.00 99 1024.5
20260507083521 11 23 0.0 0.0 0.00 0.00 0.00 99 1024.5
20260507083019 12 49 0.0 4.8 0.00 0.00 0.00 99 1024.6
20260507082515 12 45 4.8 4.8 0.00 0.00 0.00 99 1024.7
20260507082011 12 45 4.8 4.8 0.00 0.00 0.00 99 1024.7
20260507081508 12 63 0.0 6.4 0.00 0.00 0.00 99 1024.5
20260507081005 11 85 3.2 3.2 0.00 0.00 0.00 99 1024.5
20260507080500 12 80 0.0 4.8 0.00 0.00 0.00 99 1024.4
20260507075956 12 71 1.6 3.2 0.00 0.00 0.00 99 1024.4
20260507075452 12 47 4.8 4.8 0.00 0.00 0.00 99 1024.5
20260507074949 12 14 0.0 4.8 0.00 0.00 0.00 99 1024.4
20260507074446 12 11 1.6 4.8 0.00 0.00 0.00 99 1024.3
20260507073944 12 82 1.6 6.4 0.00 0.00 0.00 99 1024.1
20260507073440 12 45 4.8 8.0 0.00 0.00 0.00 99 1024.0
20260507072937 12 21 6.4 6.4 0.00 0.00 0.00 99 1024.4
20260507072434 12 69 1.6 8.0 0.00 0.00 0.00 99 1024.3
20260507071932 12 90 0.0 4.8 0.00 0.00 0.00 99 1024.4
20260507071429 12 14 0.0 4.8 0.00 0.00 0.00 99 1024.5
20260507070925 12 41 3.2 3.2 0.00 0.00 0.00 99 1024.5
20260507070423 12 18 1.6 3.2 0.00 0.00 0.00 99 1024.6
20260507065919 12 90 0.0 4.8 0.00 0.00 0.00 99 1024.3
20260507065416 12 98 0.0 6.4 0.00 0.00 0.00 99 1024.4
20260507064913 12 65 3.2 6.4 0.00 0.00 0.00 99 1024.4
20260507064411 12 119 0.0 6.4 0.00 0.00 0.00 99 1024.2
20260507063909 12 52 4.8 6.4 0.00 0.00 0.00 99 1024.2
20260507063406 12 180 0.0 4.8 0.00 0.00 0.00 99 1024.1
20260507062903 12 81 0.0 4.8 0.00 0.00 0.00 99 1024.3
20260507062359 12 41 6.4 8.0 0.00 0.00 0.00 99 1024.1
20260507061857 12 18 3.2 4.8 0.00 0.00 0.00 99 1023.9
20260507061355 12 105 0.0 3.2 0.00 0.00 0.00 99 1023.9
20260507060853 12 144 0.0 6.4 0.00 0.00 0.00 99 1024.0
20260507060349 13 90 0.0 3.2 0.00 0.00 0.00 99 1023.9
20260507055846 13 90 1.6 6.4 0.00 0.00 0.00 99 1024.0
20260507055341 13 140 3.2 3.2 0.00 0.00 0.00 99 1023.8
20260507054839 13 140 0.0 3.2 0.00 0.00 0.00 99 1023.8
20260507054335 13 49 3.2 3.2 0.00 0.00 0.00 99 1023.9
20260507053832 13 56 3.2 3.2 0.00 0.00 0.00 99 1023.8
20260507053329 13 67 3.2 3.2 0.00 0.00 0.00 99 1023.8
20260507052828 13 100 3.2 3.2 0.00 0.00 0.00 99 1024.0
20260507052324 13 99 0.0 1.6 0.00 0.00 0.00 99 1023.9
20260507051822 13 97 0.0 3.2 0.00 0.00 0.00 99 1024.0
20260507051320 13 111 0.0 1.6 0.00 0.00 0.00 99 1023.9
20260507050816 13 10 4.8 6.4 0.00 0.00 0.00 99 1023.9
20260507050313 13 106 1.6 6.4 0.00 0.00 0.00 99 1024.3
20260507045810 13 90 1.6 6.4 0.00 0.00 0.00 99 1024.1
20260507045307 13 90 0.0 4.8 0.00 0.00 0.00 99 1023.9
20260507044803 14 90 0.0 1.6 0.00 0.00 0.00 99 1024.1
20260507044300 13 8 0.0 3.2 0.00 0.00 0.00 99 1024.1
20260507043756 14 98 0.0 6.4 0.00 0.00 0.00 99 1024.0
20260507043252 14 94 3.2 4.8 0.00 0.00 0.00 99 1023.9
20260507042749 14 90 1.6 4.8 0.00 0.00 0.00 99 1023.9
20260507042244 14 130 0.0 8.0 0.00 0.00 0.00 99 1024.1
20260507041742 14 56 0.0 4.8 0.00 0.00 0.00 99 1024.3
20260507041238 14 82 0.0 12.9 0.00 0.00 0.00 99 1024.6
20260507040735 14 41 3.2 9.7 0.00 0.00 0.00 99 1024.5
20260507040231 14 59 8.0 11.3 0.00 0.00 0.00 99 1024.4
20260507035727 15 120 0.0 9.7 0.00 0.00 0.00 99 1024.5
20260507035223 15 110 4.8 8.0 0.00 0.00 0.00 99 1024.4
20260507034721 14 66 0.0 4.8 0.00 0.00 0.00 99 1024.4
20260507034218 14 90 1.6 9.7 0.00 0.00 0.00 99 1024.5
20260507033716 15 103 0.0 6.4 0.00 0.00 0.00 99 1024.4
20260507033213 15 110 0.0 6.4 0.00 0.00 0.00 99 1024.3
20260507032710 15 105 1.6 6.4 0.00 0.00 0.00 99 1024.1
20260507032206 15 74 0.0 8.0 0.00 0.00 0.00 99 1024.4
20260507031703 15 82 1.6 4.8 0.00 0.00 0.00 99 1024.2
20260507031200 15 20 4.8 12.9 0.00 0.00 0.00 99 1024.3
20260507030656 15 75 8.0 9.7 0.00 0.00 0.00 99 1024.1
20260507030154 15 56 3.2 6.4 0.00 0.00 0.00 99 1023.7
20260507025651 15 354 4.8 6.4 0.00 0.00 0.00 99 1023.7
20260507025148 15 38 3.2 9.7 0.00 0.00 0.00 99 1023.8
20260507024646 15 90 3.2 9.7 0.00 0.00 0.00 99 1023.5
20260507024143 15 78 4.8 8.0 0.00 0.00 0.00 99 1023.5
20260507023638 15 52 6.4 6.4 0.00 0.00 0.00 99 1023.4
20260507023136 15 105 0.0 4.8 0.00 0.00 0.00 99 1023.3
20260507022633 15 97 0.0 8.0 0.00 0.00 0.00 99 1023.3
20260507022128 15 38 4.8 9.7 0.00 0.00 0.00 99 1023.1
20260507021625 15 83 1.6 8.0 0.00 0.00 0.00 99 1022.9
20260507021120 15 90 1.6 6.4 0.00 0.00 0.00 99 1022.9
20260507020619 15 98 1.6 4.8 0.00 0.00 0.00 99 1022.9
20260507020115 15 41 3.2 4.8 0.00 0.00 0.00 99 1022.9
20260507015614 15 57 6.4 11.3 0.00 0.00 0.00 99 1022.7
20260507015111 15 28 8.0 11.3 0.00 0.00 0.00 99 1022.8
20260507014607 15 41 3.2 9.7 0.00 0.00 0.00 99 1022.6
20260507014103 15 54 0.0 9.7 0.00 0.00 0.00 99 1022.4
20260507013600 15 58 4.8 11.3 0.00 0.00 0.00 99 1022.2
20260507013057 15 90 0.0 6.4 0.00 0.00 0.00 99 1022.1
20260507012554 15 49 8.0 9.7 0.00 0.00 0.00 99 1022.0
20260507012050 15 22 4.8 12.9 0.00 0.00 0.00 99 1021.9
20260507011548 15 30 4.8 8.0 0.00 0.00 0.00 99 1021.9
20260507011044 15 60 0.0 6.4 0.00 0.00 0.00 99 1022.0
20260507010538 15 75 4.8 6.4 0.00 0.00 0.00 99 1021.9
20260507010035 15 90 0.0 8.0 0.00 0.00 0.00 99 1021.9
20260507005533 15 32 4.8 4.8 0.00 0.00 0.00 99 1021.9
20260507005029 15 75 0.0 6.4 0.00 0.00 0.00 99 1021.6
20260507004526 15 84 0.0 4.8 0.00 0.00 0.00 99 1021.6
20260507004023 15 33 3.2 4.8 0.00 0.00 0.00 99 1021.6
20260507003519 15 90 0.0 9.7 0.00 0.00 0.00 99 1021.5
20260507003014 15 37 0.0 8.0 0.00 0.00 0.00 99 1021.7
20260507002511 15 77 3.2 11.3 0.00 0.00 0.00 99 1021.3
20260507002007 15 6 0.0 8.0 0.00 0.00 0.00 99 1021.6
20260507001503 15 90 3.2 14.5 0.00 0.00 0.00 99 1021.2
20260507001001 15 105 4.8 14.5 0.00 0.00 0.00 99 1021.2
20260507000457 15 105 0.0 11.3 0.00 0.00 0.00 99 1021.2
20260506235952 15 45 3.2 6.4 0.00 0.00 0.00 99 1021.2
20260506235450 15 95 3.2 8.0 0.00 0.00 0.00 99 1020.9
20260506234946 15 56 9.7 9.7 0.00 0.00 0.00 99 1020.8
20260506234443 15 100 0.0 4.8 0.00 0.00 0.00 99 1020.9
20260506233941 15 55 4.8 11.3 0.00 0.00 0.00 99 1021.2
20260506233437 15 92 8.0 14.5 0.00 0.00 0.00 99 1021.2
20260506232934 15 114 3.2 8.0 0.00 0.00 0.00 99 1021.0
20260506232430 15 302 4.8 11.3 0.00 0.00 0.00 99 1020.6
20260506231926 15 42 4.8 14.5 0.00 0.00 0.00 99 1020.8
20260506231423 15 62 12.9 12.9 0.00 0.00 0.00 99 1020.6
20260506230921 15 121 3.2 14.5 0.00 0.00 0.00 99 1020.7
20260506230417 15 90 3.2 6.4 0.00 0.00 0.00 99 1020.9
20260506225914 15 65 0.0 6.4 0.00 0.00 0.00 99 1020.9
20260506225411 15 66 0.0 11.3 0.00 0.00 0.00 99 1020.6
20260506224908 15 25 4.8 8.0 0.00 0.00 0.00 99 1021.0
20260506224405 15 90 1.6 3.2 0.00 0.00 0.00 99 1020.9
20260506223901 15 66 1.6 4.8 0.00 0.00 0.00 99 1020.9
20260506223357 15 70 3.2 11.3 0.00 0.00 0.00 99 1020.6
20260506222854 15 0 0.0 12.9 0.00 0.00 0.00 99 1020.8
20260506222350 15 90 3.2 9.7 0.00 0.00 0.00 99 1020.7
20260506221848 15 67 4.8 8.0 0.00 0.00 0.00 99 1020.9
20260506221345 15 21 9.7 14.5 0.00 0.00 0.00 99 1020.6
20260506220842 15 47 4.8 11.3 0.00 0.00 0.00 99 1020.5
20260506220338 15 12 4.8 14.5 0.00 0.00 0.00 99 1020.5
20260506215835 15 349 0.0 4.8 0.00 0.00 0.00 99 1020.1
20260506215330 15 9 3.2 12.9 0.00 0.00 0.00 99 1020.1
20260506214827 15 345 3.2 17.7 0.00 0.00 0.00 99 1020.3
20260506214323 15 324 8.0 11.3 0.00 0.00 0.00 99 1020.3
20260506213822 15 10 4.8 14.5 0.00 0.00 0.00 99 1020.3
20260506213319 15 39 8.0 11.3 0.00 0.00 0.00 99 1020.9
20260506212816 15 73 3.2 12.9 0.00 0.00 0.00 99 1020.5
20260506212312 15 100 3.2 9.7 0.00 0.00 0.00 99 1020.6
20260506211807 15 35 4.8 9.7 0.00 0.00 0.00 99 1020.5
20260506211303 16 352 0.0 3.2 0.00 0.00 0.00 99 1020.5
20260506210801 15 328 3.2 12.9 0.00 0.00 0.00 99 1020.4
20260506210257 15 73 8.0 8.0 0.00 0.00 0.00 99 1020.5
20260506205754 16 102 3.2 12.9 0.00 0.00 0.00 99 1020.7
20260506205250 16 36 3.2 6.4 0.00 0.00 0.00 99 1020.7
20260506204747 15 33 6.4 17.7 0.00 0.00 0.00 99 1020.7
20260506204245 15 32 4.8 9.7 0.00 0.00 0.00 99 1020.3
20260506203742 15 28 12.9 19.3 0.00 0.00 0.00 99 1020.8
20260506203239 15 80 3.2 12.9 0.00 0.00 0.00 99 1021.0
20260506202736 15 330 0.0 14.5 0.00 0.00 0.00 99 1021.2
20260506202233 15 30 6.4 9.7 0.00 0.00 0.00 99 1021.2
20260506201730 15 17 8.0 14.5 0.00 0.00 0.00 99 1020.9
20260506201226 15 51 3.2 14.5 0.00 0.00 0.00 99 1021.1
20260506200723 15 293 4.8 16.1 0.00 0.00 0.00 99 1021.0
20260506200220 15 15 4.8 14.5 0.00 0.00 0.00 99 1020.8
20260506195716 15 290 3.2 9.7 0.00 0.00 0.00 99 1021.3
20260506195212 14 32 3.2 9.7 0.00 0.00 0.00 99 1021.5
20260506194705 13 0 0.0 4.8 0.00 0.00 0.00 99 1021.3
20260506194201 13 33 6.4 9.7 0.00 0.00 0.00 99 1021.6
20260506193659 13 18 1.6 4.8 0.00 0.00 0.00 99 1021.7
20260506193155 13 336 3.2 4.8 0.00 0.00 0.00 99 1021.7
20260506192652 14 29 0.0 4.8 0.00 0.00 0.00 99 1021.3
20260506192148 13 25 8.0 8.0 0.00 0.00 0.00 99 1021.3
20260506191646 13 33 3.2 4.8 0.00 0.00 0.00 99 1021.4
20260506191141 13 0 3.2 4.8 0.00 0.00 0.00 99 1021.8
20260506190639 13 63 0.0 4.8 0.00 0.00 0.00 99 1022.0
20260506190135 13 30 0.0 4.8 0.00 0.00 0.00 99 1021.6
20260506185633 13 332 3.2 6.4 0.00 0.00 0.00 99 1021.6
20260506185129 13 15 1.6 8.0 0.00 0.00 0.00 99 1021.4
20260506184626 13 0 3.2 6.4 0.00 0.00 0.00 99 1021.1
20260506184123 13 0 0.0 11.3 0.00 0.00 0.00 99 1021.0
20260506183620 13 24 9.7 9.7 0.00 0.00 0.00 99 1020.5
20260506183116 13 7 4.8 11.3 0.00 0.00 0.00 99 1020.4
20260506182614 13 348 0.0 12.9 0.00 0.00 0.00 99 1020.3
20260506182110 13 17 9.7 14.5 0.00 0.00 0.00 99 1020.3
20260506181609 13 10 6.4 14.5 0.00 0.00 0.00 99 1019.9
20260506181105 13 16 8.0 12.9 0.00 0.00 0.00 99 1019.8
20260506180602 12 8 4.8 11.3 0.00 0.00 0.00 99 1020.1
20260506180059 12 8 0.0 9.7 0.00 0.00 0.00 99 1020.5
20260506175555 12 291 1.6 8.0 0.00 0.00 0.00 99 1020.9
20260506175051 12 45 4.8 12.9 0.00 0.00 0.00 99 1020.8
20260506174550 12 2 4.8 9.7 0.00 0.00 0.00 99 1020.9
20260506174046 12 18 0.0 14.5 0.00 0.00 0.00 99 1020.9
20260506173544 12 32 1.6 11.3 0.00 0.00 0.00 99 1020.8
20260506173040 12 4 4.8 14.5 0.00 0.00 0.00 99 1020.6
20260506172538 12 37 8.0 11.3 0.00 0.00 0.00 99 1020.9
20260506172034 12 15 1.6 11.3 0.00 0.00 0.00 99 1020.8
20260506171531 12 345 8.0 8.0 0.00 0.00 0.00 99 1020.8
20260506171029 12 21 6.4 11.3 0.00 0.00 0.00 99 1021.2
20260506170526 11 15 9.7 14.5 0.00 0.00 0.00 99 1020.9
20260506170018 11 13 6.4 14.5 0.00 0.00 0.00 99 1021.3
20260506165516 11 353 8.0 14.5 0.00 0.00 0.00 99 1021.4
20260506165012 11 353 3.2 17.7 0.00 0.00 0.00 99 1021.7
20260506164509 11 45 11.3 11.3 0.00 0.00 0.00 99 1021.6
20260506164007 11 16 3.2 9.7 0.00 0.00 0.00 99 1021.9
20260506163502 11 78 6.4 11.3 0.00 0.00 0.00 99 1021.8
20260506162956 11 31 11.3 11.3 0.00 0.00 0.00 99 1022.0
20260506162454 11 0 0.0 9.7 0.00 0.00 0.00 99 1022.1
20260506161951 11 16 0.0 4.8 0.00 0.00 0.00 99 1022.0
20260506161449 12 11 0.0 3.2 0.00 0.00 0.00 99 1022.0
20260506160946 11 312 0.0 6.4 0.00 0.00 0.00 99 1021.4
20260506160444 11 59 0.0 6.4 0.00 0.00 0.00 99 1020.5
20260506155941 11 34 3.2 8.0 0.00 0.00 0.00 99 1020.6
20260506155438 11 6 6.4 6.4 0.00 0.00 0.00 99 1020.6
20260506153605 11 12 1.6 9.7 0.00 0.00 0.00 99 1023.3
20260506153103 11 330 3.2 9.7 0.00 0.00 0.00 99 1023.3
20260506152559 12 339 4.8 12.9 0.00 0.00 0.00 99 1022.8
20260506152057 12 352 8.0 8.0 0.00 0.00 0.00 99 1022.3
20260506151555 12 73 8.0 8.0 0.00 0.00 0.00 99 1022.0
20260506151052 12 23 8.0 9.7 0.00 0.00 0.00 99 1021.5
20260506150548 12 46 6.4 16.1 0.00 0.00 0.00 99 1021.6
20260506150045 12 28 6.4 24.1 0.00 0.00 0.00 99 1020.6
20260506145542 12 26 12.9 19.3 0.00 0.00 0.00 99 1021.5
20260506145040 12 23 14.5 16.1 0.00 0.00 0.00 99 1021.5
20260506144536 12 355 3.2 16.1 0.00 0.00 0.00 99 1021.5
20260506144034 12 0 4.8 14.5 0.00 0.00 0.00 99 1021.7
20260506143531 12 48 9.7 9.7 0.00 0.00 0.00 99 1021.6
20260506143030 12 5 11.3 14.5 0.00 0.00 0.00 99 1021.8
20260506142527 12 41 19.3 19.3 0.00 0.00 0.00 99 1021.4
20260506142025 12 15 3.2 14.5 0.00 0.00 0.00 99 1021.2
20260506141522 12 9 8.0 17.7 0.00 0.00 0.00 99 1020.7
20260506141021 12 13 4.8 14.5 0.00 0.00 0.00 99 1021.2
20260506140518 12 352 4.8 11.3 0.00 0.00 0.00 99 1020.8
20260506140015 11 95 3.2 14.5 0.00 0.00 0.00 99 1020.7
20260506135512 11 67 6.4 17.7 0.00 0.00 0.00 99 1020.6
20260506135008 11 7 8.0 16.1 0.00 0.00 0.00 99 1020.6
20260506134504 12 57 6.4 16.1 0.00 0.00 0.00 99 1020.6
20260506134000 11 28 4.8 8.0 0.00 0.00 0.00 99 1020.4
20260506133457 12 33 16.1 16.1 0.00 0.00 0.00 99 1020.3